User: anonymous   Login
Location: Caltech
(34.1382°N, 118.1253°W)
Time: 14:40:28
(UTC-07:00)
Language:

RESURS DK-1 - Orbit

View from above orbital plane
View from above orbital plane
View from above satellite
View from above satellite

Ground track
Ground track

The orbit data is extracted from the following two-line orbital elements,

1 29228U 06021A   16244.49338490  .00000274  00000-0  28290-4 0  9997
2 29228  69.9351 115.0260 0002287  30.6505 329.4789 15.01969013564609
Epoch (UTC): 31 August 2016 11:50:28
Eccentricity: 0.0002287
inclination: 69.9351°
perigee height: 559 km
apogee height: 562 km
right ascension of ascending node: 115.0260°
argument of perigee: 30.6505°
revolutions per day: 15.01969013
mean anomaly at epoch: 329.4789°
orbit number at epoch: 56460

The dashed part of the orbit path shows where the satellite is in the earth's shadow,  

DLR